This is the latest recevied weather packets stored in our database for station/object K6POO-1. If no packets are shown the sender has not sent any weather packets the latest 10 day(s).
| Time | Temp. | Humidity | Pressure | Rain* | Wind** | Luminosity | Snow |
|---|---|---|---|---|---|---|---|
| 1788058069 | 16.67° C | 71% | 1013.3 hPa | 0 mm | - | 2 W/m² | - |
| 1788057765 | 16.67° C | 72% | 1012.9 hPa | 0 mm | - | 5 W/m² | - |
| 1788057462 | 16.67° C | 72% | 1013.2 hPa | 0 mm | - | 7 W/m² | - |
| 1788057161 | 16.67° C | 71% | 1013.4 hPa | 0 mm | - | 11 W/m² | - |
| 1788056860 | 16.67° C | 72% | 1013.3 hPa | 0 mm | - | 14 W/m² | - |
| 1788056556 | 16.67° C | 72% | 1013.3 hPa | 0 mm | - | 18 W/m² | - |
| 1788056261 | 16.67° C | 72% | 1012.9 hPa | 0 mm | - | 21 W/m² | - |
| 1788055946 | 16.67° C | 72% | 1012.9 hPa | 0 mm | - | 25 W/m² | - |
| 1788055645 | 16.67° C | 72% | 1013 hPa | 0 mm | - | 28 W/m² | - |
| 1788055340 | 16.67° C | 72% | 1013 hPa | 0 mm | - | 31 W/m² | - |
| 1788055040 | 16.67° C | 72% | 1013.1 hPa | 0 mm | - | 33 W/m² | - |
| 1788054736 | 16.67° C | 72% | 1013.2 hPa | 0 mm | - | 35 W/m² | - |
| 1788054431 | 17.22° C | 71% | 1013.5 hPa | 0 mm | - | 38 W/m² | - |
| 1788054127 | 17.78° C | 69% | 1013.7 hPa | 0 mm | - | 40 W/m² | - |
| 1788053822 | 17.78° C | 69% | 1013.5 hPa | 0 mm | - | 47 W/m² | - |
| 1788053517 | 17.78° C | 69% | 1013.7 hPa | 0 mm | - | 50 W/m² | - |
| 1788053216 | 17.78° C | 70% | 1013.8 hPa | 0 mm | - | 55 W/m² | - |
| 1788052913 | 17.78° C | 69% | 1013.9 hPa | 0 mm | - | 63 W/m² | - |
| 1788052608 | 17.78° C | 70% | 1013.7 hPa | 0 mm | - | 73 W/m² | - |
| 1788052303 | 18.89° C | 68% | 1013.7 hPa | 0 mm | - | 89 W/m² | - |
| 1788051999 | 18.33° C | 69% | 1013.7 hPa | 0 mm | - | 101 W/m² | - |
| 1788051693 | 18.89° C | 68% | 1013.5 hPa | 0 mm | - | 112 W/m² | - |
| 1788051392 | 18.33° C | 69% | 1013.6 hPa | 0 mm | - | 124 W/m² | - |
| 1788051091 | 18.33° C | 70% | 1013.5 hPa | 0 mm | - | 139 W/m² | - |
| 1788050791 | 18.33° C | 70% | 1013.6 hPa | 0 mm | - | 155 W/m² | - |
* Rain latest hour (hover to see other rain measurements)
** Current wind speed in m/s (hover to see current wind gust speed)